OpenBCM V1.08-3-g9b42 (Linux)

Packet Radio Mailbox

OK0NBR

[Sao_Jose_dos_Campo]

 Login: GUEST





  
I0OJJ  > KEPS     25.10.25 02:03l 316 Lines 15004 Bytes #172 (0) @ AMSAT
BID : ORB25298.1
Read: GUEST
Subj: 2Line Orbital Elements 25298.AMSAT
Path: OK0NBR<IW0QNL<HB9ON<IK7NXU<IK6IHL<IZ3LSV<DB0ERF<DK0WUE<PI8ZTM<IR0AAB<
      I0OJJ
Sent: 251025/0021z @:I0OJJ.ITA.EU [Rome] obcm1.08-11-2-gbfe9
From: I0OJJ @ I0OJJ.ITA.EU (Gustavo)
To:   KEPS @ AMSAT
X-Info: This message was generated automatically


QST de W1STR

AMSAT Orbital Elements for Amateur Satellites in TLE Format
From Orbital Analysis Office
New England Sci-Tech STEM Education Center
Natick MA October 25, 2025
To all radio amateurs


These element sets describe the orbits of various satellites 
in use by the amateur radio community. For details see:
www.amsat.org/keplerian-elements-formats/

A daily update of element sets is available at:
www.amsat.org/tle/daily-bulletin.txt
or without bulletin text:
www.amsat.org/tle/dailytle.txt


AO-07
1 07530U 74089B   25297.67059111 -.00000044  00000-0  17160-4 0  9996
2 07530 101.9984 303.4170 0012007 219.9102 252.1890 12.53692712331003
UO-11
1 14781U 84021B   25297.83756977  .00002556  00000-0  27147-3 0  9995
2 14781  97.7736 261.6544 0006228 236.5619 123.5004 14.89892925222075
AO-27
1 22825U 93061C   25297.69965906  .00000192  00000-0  90242-4 0  9996
2 22825  98.7212 359.8348 0009445  73.9747 286.2475 14.30849966673324
FO-29
1 24278U 96046B   25297.45874786  .00000047  00000-0  84592-4 0  9995
2 24278  98.5513 173.1966 0349803 348.0512  11.2484 13.53258002441287
NOAA-15
1 25338U 98030A   25297.81934858  .00000215  00000-0  10575-3 0  9991
2 25338  98.5272 319.6034 0009487 322.4874  37.5644 14.27041240427726
GO-32
1 25397U 98043D   25297.81551831  .00000155  00000-0  87053-4 0  9995
2 25397  98.9876 279.9081 0001710 136.6119 223.5194 14.24356403417827
ISS
1 25544U 98067A   25297.71697619  .00017304  00000-0  31673-3 0  9999
2 25544  51.6348  25.1812 0004566 333.5945  26.4810 15.49427280535254
NO-44
1 26931U 01043C   25297.84025510  .00000257  00000-0  12711-3 0  9998
2 26931  67.0487 132.9314 0007148 272.8194  87.2090 14.31812394256758
SO-50
1 27607U 02058C   25297.82328810  .00001800  00000-0  23501-3 0  9997
2 27607  64.5508 136.7522 0069039 305.6552  53.8137 14.82124355229567
CO-55
1 27844U 03031E   25297.76126054  .00000516  00000-0  24303-3 0  9995
2 27844  98.6784 304.2923 0010224 144.0426 216.1442 14.24117721158163
CO-57
1 27848U 03031J   25297.00121059  .00000449  00000-0  21673-3 0  9998
2 27848  98.6813 303.4430 0009783 162.9655 197.1854 14.23434287157774
RS-22
1 27939U 03042A   25297.80679579  .00001897  00000-0  30511-3 0  9993
2 27939  98.3377 110.7133 0010371 298.1061 177.7162 14.72759100180897
CO-58
1 28895U 05043F   25297.83082513  .00002922  00000-0  47759-3 0  9999
2 28895  98.2695  84.1028 0013579 229.2300 130.7729 14.71596849 67128
CO-65
1 32785U 08021C   25297.88906275  .00008854  00000-0  60831-3 0  9992
2 32785  97.8022 270.3329 0011353 104.4835 255.7652 15.06144464949738
CO-66
1 32791U 08021J   25297.46502558  .00022894  00000-0  97633-3 0  9999
2 32791  97.7417 281.0126 0006126  71.5360 288.6541 15.22923076951293
RS-30
1 32953U 08025A   25297.86005756  .00000019  00000-0  67663-4 0  9991
2 32953  82.5008 141.8276 0019896 104.5116 255.8173 12.43169731790450
NOAA-19
1 33591U 09005A   25297.82104975  .00000097  00000-0  75398-4 0  9998
2 33591  98.9827   3.2003 0013304 340.0676  19.9974 14.13420739861234
SRMSAT
1 37841U 11058D   25297.69240022  .00000521  00000-0  13901-3 0  9993
2 37841  19.9727  44.7887 0011765 132.4569  13.6380 14.11486020724504
ZACUBE-1
1 39417U 13066B   25297.85236480  .00008231  00000-0  68434-3 0  9993
2 39417  97.7990 254.3757 0041461 315.9258  43.8661 14.98301081645456
Delfi-N3xt
1 39428U 13066N   25297.75999904  .00011002  00000-0  10601-2 0  9993
2 39428  97.8300 214.0025 0079025 268.4183  90.7982 14.90746291639493
GOMX-1
1 39430U 13066Q   25297.84017020  .00002672  00000-0  41324-3 0  9996
2 39430  97.6649 148.0233 0132340 112.5659 248.9613 14.68272337635364
LO-74
1 39440U 13066AA  25297.83459094  .00006417  00000-0  62796-3 0  9994
2 39440  97.8630 241.6202 0062430  86.7714 274.0644 14.91184848641882
AO-73
1 39444U 13066AE  25297.86587031  .00012201  00000-0  85486-3 0  9993
2 39444  97.7984 260.6068 0037869 283.8246  75.8768 15.04784922644214
DTUSAT-2
1 40030U 14033W   25297.86841235  .00011484  00000-0  69911-3 0  9997
2 40030  98.0721 276.6392 0007332 330.8592  29.2226 15.10568755617107
EO-80
1 40032U 14033Y   25297.48382635  .00011871  00000-0  72127-3 0  9994
2 40032  98.0598 275.6976 0005878 254.9058 105.1520 15.10637214617023
LILACSAT-2
1 40908U 15049K   25297.79612626  .00019272  00000-0  44219-3 0  9998
2 40908  97.4971 321.7292 0009425  38.4072 321.7844 15.42724061559358
IO-86
1 40931U 15052B   25151.18580175  .00001241  00000-0  78118-4 0  9996
2 40931   6.0006  24.0987 0012733 338.8432  21.1169 14.78805930523159
Horyu-4
1 41340U 16012D   25297.67395296  .00048262  00000-0  97669-3 0  9996
2 41340  30.9958 285.4383 0003158  79.7661 280.3343 15.45169686533942
Lapan A3
1 41603U 16040E   25297.81473686  .00004967  00000-0  16800-3 0  9997
2 41603  97.1426 297.1704 0012228 131.8063 228.4225 15.30989579518771
CAS-2T
1 41847U 16066G   25297.77434387  .00002526  00000-0  36276-3 0  9993
2 41847  98.4084  10.9937 0345466 123.2092 240.2725 14.43944206470814
TechnoSat
1 42829U 17042E   25297.53328597  .00006551  00000-0  49130-3 0  9993
2 42829  97.4038  99.8863 0018643 176.2438 183.8931 15.02837752451287
AO-91
1 43017U 17073E   25297.41244909  .00012033  00000-0  57988-3 0  9990
2 43017  97.5006 164.7711 0166934  59.8320 301.9328 15.07333145429808
S-Net D
1 43186U 18014G   25297.71056470  .00007569  00000-0  42622-3 0  9997
2 43186  97.5480 199.2276 0010716 107.7723 252.4678 15.13464071423101
S-Net B
1 43187U 18014H   25297.71785175  .00007665  00000-0  43177-3 0  9992
2 43187  97.5487 199.2130 0011465 104.1634 256.0872 15.13440992423104
S-Net A
1 43188U 18014J   25297.71046602  .00007303  00000-0  41129-3 0  9992
2 43188  97.5493 199.3746 0011310 104.7990 255.4495 15.13468830423101
S-Net C
1 43189U 18014K   25297.72064041  .00007819  00000-0  44023-3 0  9999
2 43189  97.5513 199.4221 0012902  98.9529 261.3163 15.13434703421652
Ten-Koh
1 43677U 18084G   25297.73261807  .00003787  00000-0  29885-3 0  9997
2 43677  98.0695 115.4169 0009272 165.1562 194.9935 15.01341449380811
PO-101
1 43678U 18084H   25297.79787691  .00004299  00000-0  35908-3 0  9990
2 43678  98.1094 119.2888 0007725 171.8035 188.3314 14.99087275380937
QO-100
1 43700U 18090A   25297.76675705  .00000157  00000-0  00000+0 0  9992
2 43700   0.0101 212.0088 0001882  40.0979  83.1422  1.00273294 25316
MinXSS-2
1 43758U 18099A   25297.72932013  .00029357  00000-0  97099-3 0  9999
2 43758  97.4863   4.5377 0010750  38.0862 322.1137 15.31246995377913
AO-95
1 43770U 18099N   25297.71668222  .00015451  00000-0  71320-3 0  9999
2 43770  97.4743 354.4043 0011373  95.5943 264.6590 15.20251185377368
SNUSat 2
1 43782U 18099AA  25297.60363219  .00011598  00000-0  58859-3 0  9998
2 43782  97.4430 349.8784 0012411  45.4625 314.7620 15.17007731377250
SnugLite
1 43784U 18099AC  25297.65004814  .00014832  00000-0  67866-3 0  9990
2 43784  97.4239 349.8111 0004244  56.6953 303.4688 15.20611176377444
ITASat 1
1 43786U 18099AE  25297.70693316  .00010307  00000-0  55373-3 0  9992
2 43786  97.4393 349.0597 0015182  92.4634 267.8337 15.14992751377206
EAGLET 1
1 43790U 18099AJ  25297.62557906  .00007135  00000-0  43705-3 0  9993
2 43790  97.4596 348.4309 0013156  80.7044 279.5673 15.10410424376743
ESEO
1 43792U 18099AL  25297.49357806  .00001957  00000-0  14872-3 0  9996
2 43792  97.4299 339.6782 0013868  60.5593 299.7015 15.03194054376381
JO-97
1 43803U 18099AX  25297.62759414  .00019181  00000-0  77696-3 0  9996
2 43803  97.4496 355.6648 0007431  36.2564 323.9176 15.24685477377622
Suomi 100
1 43804U 18099AY  25297.62303272  .00015876  00000-0  70503-3 0  9991
2 43804  97.4558 354.5118 0012158  36.7002 323.5064 15.21566600377519
ISAT
1 43879U 18111D   25297.72499816  .00041068  00000-0  11255-2 0  9999
2 43879  97.5884 215.6540 0010905  77.2731 282.9731 15.37127804374700
UWE-4
1 43880U 18111E   25297.73584500  .00029011  00000-0  95999-3 0  9999
2 43880  97.5827 213.0352 0013611  87.0347 273.2451 15.31200751374575
Sparrow
1 43881U 18111F   25297.77377604  .00045886  00000-0  11854-2 0  9994
2 43881  97.6059 219.1840 0009438 101.1436 259.0870 15.38942508374827
Prox-1
1 44339U 19036A   25297.15986141  .00017789  00000-0  20854-2 0  9995
2 44339  23.9963 242.6660 0007313 193.6792 166.3509 14.83349657338299
Taurus 1
1 44530U 19059C   25297.85084340  .00010447  00000-0  18293-2 0  9998
2 44530  98.6220  84.0628 0008708 327.9625  32.1048 14.67988186324061
Duchifat 3
1 44854U 19089C   25297.84883367  .00196182  00000-0  16139-2 0  9993
2 44854  36.9328 192.3376 0009958 288.1898  71.7782 15.68807974324381
TO-108
1 44881U 19093C   25297.81514492  .00001604  00000-0  18968-3 0  9992
2 44881  97.7808  10.5331 0014660 136.8437 223.3930 14.85933741316454
FloripaSat 1
1 44885U 19093G   25297.77218316  .00009159  00000-0  73420-3 0  9994
2 44885  97.8082  25.7611 0011299 121.7426 238.4900 15.00299316317308
RS-44
1 44909U 19096E   25297.52612359  .00000019  00000-0  37653-4 0  9997
2 44909  82.5187 136.3160 0217131 335.6356  23.4597 12.79744894272203
SALSAT
1 46495U 20068K   25297.73659750  .00011785  00000-0  47258-3 0  9992
2 46495  97.8757 282.4198 0012574  53.2285 307.0104 15.25106757279418
CSS (TIANHE-1)
1 48274U 21035A   25297.53584600  .00037911  00000-0  44678-3 0  9995
2 48274  41.4667 315.6272 0011241 274.9458  85.0098 15.60556006256343
TUBIN
1 48900U 21059X   25297.77112656  .00143876  00000-0  77515-3 0  9995
2 48900  97.6720 119.7588 0001694  78.8962 281.2494 15.79777226241531
CUTE
1 49263U 21088D   25297.72349456  .00026775  00000-0  40727-3 0  9998
2 49263  97.4393  18.5260 0006793  93.4322 266.7709 15.54491786225670
